Location: Gazon
(48.1318°N, 1.2708°W)
Time: 01:23:55
(UTC+00:00)

USA 238 DEB - Pass Details

Date: 18 September 2020
Orbit: 1004 x 1208 km, 63.4° (Epoch: 28 October)

Event Time Altitude Azimuth Distance (km) Brightness Sun altitude
Rises 19:30:51 0° 318° (NW) 3,924 7.8 -14.0°
Reaches altitude 10° 19:33:30 10° 321° (NW) 2,993 7.0 -14.4°
Maximum altitude 19:40:39 67° 44° (NE) 1,244 3.9 -15.5°
Enters shadow 19:45:40 22° 123° (ESE) 2,302 4.8 -16.3°
